TimeMDT,TemperatureF,Dew PointF,Humidity,Sea Level PressureIn,VisibilityMPH,Wind Direction,Wind SpeedMPH,Gust SpeedMPH,PrecipitationIn,Events,Conditions,WindDirDegrees,DateUTC
12:53 AM,72.0,54.0,53,29.85,10.0,Calm,Calm,-,N/A,,Partly Cloudy,0,2013-07-04 06:53:00
1:53 AM,70.0,55.0,59,29.83,10.0,ESE,3.5,-,N/A,,Clear,110,2013-07-04 07:53:00
2:53 AM,73.9,53.1,48,29.82,10.0,East,8.1,-,N/A,,Partly Cloudy,90,2013-07-04 08:53:00
3:53 AM,73.0,53.1,49,29.83,10.0,North,9.2,20.7,0.00,Rain,Light Rain,360,2013-07-04 09:53:00
4:53 AM,69.1,57.0,65,29.83,10.0,Variable,4.6,-,0.00,,Clear,0,2013-07-04 10:53:00
5:53 AM,73.0,52.0,48,29.84,10.0,SSW,13.8,-,N/A,,Mostly Cloudy,200,2013-07-04 11:53:00
6:53 AM,75.0,51.1,43,29.86,10.0,SSW,10.4,-,N/A,,Mostly Cloudy,210,2013-07-04 12:53:00
7:53 AM,75.9,52.0,43,29.86,10.0,South,8.1,-,N/A,,Scattered Clouds,190,2013-07-04 13:53:00
8:53 AM,78.1,55.9,46,29.86,10.0,East,5.8,-,N/A,,Partly Cloudy,80,2013-07-04 14:53:00
9:53 AM,82.0,54.0,38,29.86,10.0,West,10.4,-,N/A,,Partly Cloudy,260,2013-07-04 15:53:00
10:53 AM,82.9,53.1,36,29.84,10.0,West,12.7,-,N/A,,Partly Cloudy,270,2013-07-04 16:53:00
11:53 AM,84.9,54.0,34,29.84,10.0,WSW,10.4,-,N/A,,Partly Cloudy,250,2013-07-04 17:53:00
12:53 PM,89.1,51.1,27,29.82,10.0,West,13.8,-,N/A,,Partly Cloudy,270,2013-07-04 18:53:00
1:53 PM,90.0,50.0,25,29.80,10.0,West,11.5,-,N/A,,Scattered Clouds,270,2013-07-04 19:53:00
2:53 PM,91.9,50.0,24,29.77,10.0,West,12.7,-,N/A,,Scattered Clouds,270,2013-07-04 20:53:00
3:53 PM,93.0,46.9,20,29.75,10.0,West,12.7,-,N/A,,Scattered Clouds,260,2013-07-04 21:53:00
4:53 PM,93.0,43.0,18,29.71,10.0,WSW,16.1,-,N/A,,Scattered Clouds,240,2013-07-04 22:53:00
5:53 PM,93.0,44.1,18,29.68,10.0,SW,17.3,-,N/A,,Scattered Clouds,220,2013-07-04 23:53:00
6:53 PM,91.0,48.0,23,29.66,10.0,SW,16.1,21.9,N/A,,Clear,230,2013-07-05 00:53:00
7:53 PM,87.1,50.0,28,29.66,10.0,WSW,13.8,-,N/A,,Clear,240,2013-07-05 01:53:00
8:53 PM,82.0,52.0,35,29.68,10.0,SW,13.8,-,N/A,,Clear,220,2013-07-05 02:53:00
9:53 PM,77.0,50.0,39,29.71,7.0,WSW,19.6,32.2,N/A,,Scattered Clouds,250,2013-07-05 03:53:00
10:00 PM,75.2,48.2,38,29.89,6.0,WSW,20.7,26.5,N/A,,Haze,240,2013-07-05 04:00:00
10:32 PM,73.4,48.2,41,29.89,9.0,SSW,16.1,-,N/A,,Scattered Clouds,210,2013-07-05 04:32:00
10:53 PM,73.9,48.0,40,29.73,10.0,SW,19.6,-,N/A,,Clear,220,2013-07-05 04:53:00
11:53 PM,75.9,46.0,35,29.73,10.0,SW,21.9,28.8,N/A,,Clear,230,2013-07-05 05:53:00